StationID,Date,MaxTemp,MinTemp,Precipitation,Snowfall,SnowDepth
"CA004057200","1915-06-01",75.92,46.94,0.00,0.00,
"CA004057200","1915-06-02",78.98,57.02,0.00,0.00,
"CA004057200","1915-06-03",78.08,51.08,0.00,0.00,
"CA004057200","1915-06-04",71.06,48.92,8.00,0.00,
"CA004057200","1915-06-05",59.00,44.96,0.00,0.00,
"CA004057200","1915-06-06",62.06,28.94,8.00,0.00,
"CA004057200","1915-06-07",55.94,32.00,0.00,0.00,
"CA004057200","1915-06-08",62.06,32.00,36.00,0.00,
"CA004057200","1915-06-09",64.04,46.04,124.00,0.00,
"CA004057200","1915-06-10",57.02,46.04,15.00,0.00,
"CA004057200","1915-06-11",62.06,39.92,0.00,0.00,
"CA004057200","1915-06-12",68.00,33.08,38.00,0.00,
"CA004057200","1915-06-13",64.04,41.00,13.00,0.00,
"CA004057200","1915-06-14",57.92,35.06,38.00,0.00,
"CA004057200","1915-06-15",51.98,33.08,3.00,0.00,
"CA004057200","1915-06-16",64.04,26.06,36.00,0.00,
"CA004057200","1915-06-17",59.00,46.04,8.00,0.00,
"CA004057200","1915-06-18",62.96,39.92,15.00,0.00,
"CA004057200","1915-06-19",66.02,37.04,20.00,0.00,
"CA004057200","1915-06-20",60.98,48.92,10.00,0.00,
"CA004057200","1915-06-21",69.98,46.94,0.00,0.00,
"CA004057200","1915-06-22",71.06,42.08,23.00,0.00,
"CA004057200","1915-06-23",69.08,42.98,38.00,0.00,
"CA004057200","1915-06-24",75.92,51.98,0.00,0.00,
"CA004057200","1915-06-25",75.92,55.04,3.00,0.00,
"CA004057200","1915-06-26",73.04,55.94,0.00,0.00,
"CA004057200","1915-06-27",64.94,48.92,0.00,0.00,
"CA004057200","1915-06-28",71.06,39.92,3.00,0.00,
"CA004057200","1915-06-29",69.98,50.00,0.00,0.00,
"CA004057200","1915-06-30",69.98,46.94,0.00,0.00,
"CA004057200","1915-07-01",55.04,39.92,5.00,0.00,
"CA004057200","1915-07-02",55.94,44.06,30.00,0.00,
"CA004057200","1915-07-03",62.06,42.98,0.00,0.00,
"CA004057200","1915-07-04",71.06,35.06,0.00,0.00,
"CA004057200","1915-07-05",75.02,41.00,0.00,0.00,
"CA004057200","1915-07-06",80.06,50.00,0.00,0.00,
"CA004057200","1915-07-07",80.96,51.08,66.00,0.00,
"CA004057200","1915-07-08",78.98,55.94,64.00,0.00,
"CA004057200","1915-07-09",80.06,53.96,81.00,0.00,
"CA004057200","1915-07-10",73.04,59.00,0.00,0.00,
"CA004057200","1915-07-11",75.92,44.06,0.00,0.00,
"CA004057200","1915-07-12",75.02,46.04,0.00,0.00,
"CA004057200","1915-07-13",66.92,44.96,0.00,0.00,
"CA004057200","1915-07-14",57.92,46.94,25.00,0.00,
"CA004057200","1915-07-15",60.98,51.08,18.00,0.00,
"CA004057200","1915-07-16",64.04,50.00,0.00,0.00,
"CA004057200","1915-07-17",60.08,44.96,0.00,0.00,
"CA004057200","1915-07-18",64.94,48.92,0.00,0.00,
"CA004057200","1915-07-19",71.96,39.92,0.00,0.00,
"CA004057200","1915-07-20",75.92,46.04,0.00,0.00,
"CA004057200","1915-07-21",80.06,48.02,0.00,0.00,
"CA004057200","1915-07-22",75.92,55.04,5.00,0.00,
"CA004057200","1915-07-23",75.92,51.08,48.00,0.00,
"CA004057200","1915-07-24",69.98,51.98,0.00,0.00,
"CA004057200","1915-07-25",73.04,42.08,0.00,0.00,
"CA004057200","1915-07-26",75.92,42.98,0.00,0.00,
"CA004057200","1915-07-27",80.96,44.96,0.00,0.00,
"CA004057200","1915-07-28",82.04,48.02,0.00,0.00,
"CA004057200","1915-07-29",71.96,50.00,3.00,0.00,
"CA004057200","1915-07-30",78.08,48.92,58.00,0.00,
"CA004057200","1915-07-31",62.06,51.98,33.00,0.00,
"CA004057200","1915-08-01",69.98,48.02,0.00,0.00,
"CA004057200","1915-08-02",73.94,39.92,0.00,0.00,
"CA004057200","1915-08-03",82.04,50.00,0.00,0.00,
"CA004057200","1915-08-04",87.08,55.94,0.00,0.00,
"CA004057200","1915-08-05",86.00,44.96,0.00,0.00,
"CA004057200","1915-08-06",89.96,51.98,0.00,0.00,
"CA004057200","1915-08-07",91.94,55.94,0.00,0.00,
"CA004057200","1915-08-08",96.08,57.02,3.00,0.00,
"CA004057200","1915-08-09",95.00,57.02,5.00,0.00,
"CA004057200","1915-08-10",89.06,57.92,0.00,0.00,
"CA004057200","1915-08-11",87.98,51.08,0.00,0.00,
"CA004057200","1915-08-12",87.98,51.08,58.00,0.00,
"CA004057200","1915-08-13",84.02,57.02,0.00,0.00,
"CA004057200","1915-08-14",87.08,48.92,0.00,0.00,
"CA004057200","1915-08-15",89.96,48.92,0.00,0.00,
"CA004057200","1915-08-16",78.98,60.08,86.00,0.00,
"CA004057200","1915-08-17",78.08,55.94,160.00,0.00,
"CA004057200","1915-08-18",82.04,59.00,0.00,0.00,
"CA004057200","1915-08-19",80.96,55.94,0.00,0.00,
"CA004057200","1915-08-20",84.92,57.92,0.00,0.00,
"CA004057200","1915-08-21",75.92,42.98,0.00,0.00,
"CA004057200","1915-08-22",64.94,51.98,0.00,0.00,
"CA004057200","1915-08-23",68.00,37.94,0.00,0.00,
"CA004057200","1915-08-24",69.08,42.98,0.00,0.00,
"CA004057200","1915-08-25",64.04,33.08,0.00,0.00,
"CA004057200","1915-08-26",89.06,48.02,0.00,0.00,
"CA004057200","1915-08-27",73.94,55.94,0.00,0.00,
"CA004057200","1915-08-28",69.98,39.02,0.00,0.00,
"CA004057200","1915-08-29",84.02,50.00,0.00,0.00,
"CA004057200","1915-08-30",95.00,46.94,0.00,0.00,
"CA004057200","1915-08-31",78.98,57.92,0.00,0.00,
"CA004057200","1915-09-01",77.00,46.04,13.00,0.00,
"CA004057200","1915-09-02",64.94,53.96,10.00,0.00,
"CA004057200","1915-09-03",73.04,55.04,0.00,0.00,
"CA004057200","1915-09-04",71.06,50.00,20.00,0.00,
"CA004057200","1915-09-05",78.98,46.94,41.00,0.00,
"CA004057200","1915-09-06",78.98,66.02,0.00,0.00,
"CA004057200","1915-09-07",78.08,44.06,0.00,0.00,
"CA004057200","1915-09-08",66.02,37.04,3.00,0.00,
"CA004057200","1915-09-09",59.00,30.92,15.00,0.00,
"CA004057200","1915-09-10",48.02,32.00,0.00,0.00,
"CA004057200","1915-09-11",51.08,19.04,0.00,0.00,
"CA004057200","1915-09-12",44.06,33.08,0.00,0.00,
"CA004057200","1915-09-13",44.96,24.08,0.00,0.00,
"CA004057200","1915-09-14",44.96,28.94,0.00,0.00,
"CA004057200","1915-09-15",50.00,33.08,0.00,0.00,
"CA004057200","1915-09-16",60.98,30.92,46.00,0.00,
"CA004057200","1915-09-17",53.96,39.02,5.00,0.00,
"CA004057200","1915-09-18",60.08,23.00,28.00,0.00,
"CA004057200","1915-09-19",50.00,39.02,5.00,0.00,
"CA004057200","1915-09-20",62.96,30.02,3.00,0.00,
"CA004057200","1915-09-21",62.06,30.92,0.00,0.00,
"CA004057200","1915-09-22",71.06,46.04,0.00,0.00,
"CA004057200","1915-09-23",51.98,41.00,33.00,0.00,
"CA004057200","1915-09-24",42.98,37.04,112.00,0.00,
"CA004057200","1915-09-25",39.92,32.00,0.00,0.00,
"CA004057200","1915-09-26",44.96,37.04,0.00,0.00,
"CA004057200","1915-09-27",48.02,37.04,0.00,0.00,
"CA004057200","1915-09-28",50.00,39.02,0.00,0.00,
"CA004057200","1915-09-29",50.00,37.94,0.00,0.00,
"CA004057200","1915-09-30",62.06,30.92,0.00,0.00,
"CA004057200","1915-10-01",51.08,35.96,0.00,0.00,
"CA004057200","1915-10-02",60.98,32.00,15.00,0.00,
"CA004057200","1915-10-03",57.92,28.04,0.00,0.00,
"CA004057200","1915-10-04",59.00,32.00,0.00,0.00,
"CA004057200","1915-10-05",46.94,33.98,0.00,0.00,
"CA004057200","1915-10-06",53.96,33.98,66.00,0.00,
"CA004057200","1915-10-07",39.02,28.04,10.00,0.00,
"CA004057200","1915-10-08",48.02,24.98,0.00,0.00,
"CA004057200","1915-10-09",59.00,24.08,0.00,0.00,
"CA004057200","1915-10-10",42.08,32.00,0.00,0.00,
"CA004057200","1915-10-11",51.98,21.02,0.00,0.00,
"CA004057200","1915-10-12",57.92,26.96,0.00,0.00,
"CA004057200","1915-10-13",57.02,21.92,0.00,0.00,
"CA004057200","1915-10-14",64.04,37.94,0.00,0.00,
"CA004057200","1915-10-15",60.98,24.98,0.00,0.00,
"CA004057200","1915-10-16",69.08,30.92,0.00,0.00,
"CA004057200","1915-10-17",66.02,35.96,0.00,0.00,
"CA004057200","1915-10-18",71.06,28.04,0.00,0.00,
"CA004057200","1915-10-19",55.94,30.02,23.00,0.00,
"CA004057200","1915-10-20",53.96,23.00,0.00,0.00,
"CA004057200","1915-10-21",55.04,26.06,0.00,0.00,
"CA004057200","1915-10-22",57.02,28.94,0.00,0.00,
"CA004057200","1915-10-23",57.92,28.04,0.00,0.00,
"CA004057200","1915-10-24",42.98,24.98,0.00,0.00,
"CA004057200","1915-10-25",46.04,21.92,5.00,0.00,
"CA004057200","1915-10-26",55.04,21.02,0.00,0.00,
"CA004057200","1915-10-27",57.92,33.98,0.00,0.00,
"CA004057200","1915-10-28",60.08,26.96,0.00,0.00,
"CA004057200","1915-10-29",55.04,28.04,0.00,0.00,
"CA004057200","1915-10-30",57.02,30.02,0.00,0.00,
"CA004057200","1915-10-31",41.00,30.02,0.00,0.00,
"CA004057200","1915-11-01",33.98,19.94,0.00,0.00,
"CA004057200","1915-11-02",51.08,17.06,0.00,0.00,
"CA004057200","1915-11-03",48.02,24.08,0.00,0.00,
"CA004057200","1915-11-04",48.92,17.96,0.00,0.00,
"CA004057200","1915-11-05",46.94,24.98,0.00,0.00,
"CA004057200","1915-11-06",46.94,12.02,0.00,0.00,
"CA004057200","1915-11-07",37.94,15.08,0.00,0.00,
"CA004057200","1915-11-08",28.04,15.08,0.00,0.00,
"CA004057200","1915-11-09",32.00,21.02,0.00,0.00,
"CA004057200","1915-11-10",30.92,19.04,5.00,0.00,
"CA004057200","1915-11-11",19.04,10.94,0.00,0.00,
"CA004057200","1915-11-12",12.92,6.08,0.00,0.00,
"CA004057200","1915-11-13",19.04,1.94,0.00,0.00,
"CA004057200","1915-11-14",26.06,-0.94,0.00,0.00,
"CA004057200","1915-11-15",30.92,14.00,3.00,0.00,
"CA004057200","1915-11-16",30.92,21.02,0.00,0.00,
"CA004057200","1915-11-17",35.96,8.96,0.00,0.00,
"CA004057200","1915-11-18",33.98,12.92,0.00,0.00,
"CA004057200","1915-11-19",30.92,8.06,0.00,0.00,
"CA004057200","1915-11-20",23.00,12.92,3.00,3.00,
"CA004057200","1915-11-21",24.98,1.04,0.00,0.00,
"CA004057200","1915-11-22",26.06,17.06,30.00,30.00,
"CA004057200","1915-11-23",30.92,8.96,0.00,0.00,
"CA004057200","1915-11-24",21.02,1.04,0.00,0.00,
"CA004057200","1915-11-25",28.94,-4.00,0.00,0.00,
"CA004057200","1915-11-26",30.02,10.04,0.00,0.00,
"CA004057200","1915-11-27",21.92,12.92,0.00,0.00,
"CA004057200","1915-11-28",23.00,1.04,0.00,0.00,
"CA004057200","1915-11-29",17.06,-11.02,0.00,0.00,
"CA004057200","1915-11-30",17.06,3.92,0.00,0.00,
"CA004057200","1915-12-01",19.04,-0.94,0.00,0.00,
"CA004057200","1915-12-02",21.02,1.94,0.00,0.00,
"CA004057200","1915-12-03",21.92,1.04,0.00,0.00,
"CA004057200","1915-12-04",32.00,8.06,0.00,0.00,
"CA004057200","1915-12-05",32.00,8.96,0.00,0.00,
"CA004057200","1915-12-06",37.04,19.94,0.00,0.00,
"CA004057200","1915-12-07",30.02,17.06,0.00,0.00,
"CA004057200","1915-12-08",24.98,6.08,0.00,0.00,
"CA004057200","1915-12-09",26.96,19.04,0.00,0.00,
"CA004057200","1915-12-10",24.98,1.04,10.00,10.00,
"CA004057200","1915-12-11",10.04,-9.94,0.00,0.00,
"CA004057200","1915-12-12",8.06,-0.94,0.00,0.00,
"CA004057200","1915-12-13",5.00,-0.94,0.00,0.00,
"CA004057200","1915-12-14",19.04,-2.02,0.00,0.00,
"CA004057200","1915-12-15",12.02,3.92,0.00,0.00,
"CA004057200","1915-12-16",5.00,-11.02,0.00,0.00,
"CA004057200","1915-12-17",12.02,-2.92,0.00,0.00,
"CA004057200","1915-12-18",14.00,-4.00,0.00,0.00,
"CA004057200","1915-12-19",24.98,8.96,0.00,0.00,
"CA004057200","1915-12-20",14.00,-0.94,0.00,0.00,
"CA004057200","1915-12-21",17.06,3.02,0.00,0.00,
"CA004057200","1915-12-22",23.00,14.00,46.00,46.00,
"CA004057200","1915-12-23",19.04,6.08,0.00,0.00,
"CA004057200","1915-12-24",23.00,8.96,0.00,0.00,
"CA004057200","1915-12-25",12.92,1.04,0.00,0.00,
"CA004057200","1915-12-26",6.08,-14.98,0.00,0.00,
"CA004057200","1915-12-27",24.08,1.94,0.00,0.00,
"CA004057200","1915-12-28",19.04,3.92,0.00,0.00,
"CA004057200","1915-12-29",3.92,-13.00,0.00,0.00,
"CA004057200","1915-12-30",1.94,-16.06,0.00,0.00,
"CA004057200","1915-12-31",8.96,-16.96,0.00,0.00,
"CA004057200","1916-01-01",8.06,-7.96,0.00,0.00,
"CA004057200","1916-01-02",-2.92,-13.00,0.00,0.00,
"CA004057200","1916-01-03",-7.06,-23.98,8.00,8.00,
"CA004057200","1916-01-04",-7.06,-29.92,0.00,0.00,
"CA004057200","1916-01-05",-7.06,-40.00,0.00,0.00,
"CA004057200","1916-01-06",-5.08,-13.00,0.00,0.00,
"CA004057200","1916-01-07",-2.92,-16.96,0.00,0.00,
"CA004057200","1916-01-08",-11.02,-23.98,3.00,3.00,
"CA004057200","1916-01-09",-13.00,-34.96,0.00,0.00,
"CA004057200","1916-01-10",-14.08,-36.94,0.00,0.00,
"CA004057200","1916-01-11",-23.08,-50.08,0.00,0.00,
"CA004057200","1916-01-12",-32.08,-50.98,0.00,0.00,
"CA004057200","1916-01-13",-25.96,-41.08,0.00,0.00,
"CA004057200","1916-01-14",-18.04,-41.98,0.00,0.00,
"CA004057200","1916-01-15",-7.06,-23.08,0.00,0.00,
"CA004057200","1916-01-16",15.08,-18.94,0.00,0.00,
"CA004057200","1916-01-17",10.94,-7.96,3.00,3.00,
"CA004057200","1916-01-18",15.08,-4.00,0.00,0.00,
"CA004057200","1916-01-19",8.06,-5.08,0.00,0.00,
"CA004057200","1916-01-20",3.02,-13.00,0.00,0.00,
"CA004057200","1916-01-21",1.94,-25.06,0.00,0.00,
"CA004057200","1916-01-22",-23.08,-34.96,0.00,0.00,
"CA004057200","1916-01-23",-13.00,-23.08,0.00,0.00,
"CA004057200","1916-01-24",-20.02,-34.06,8.00,8.00,
"CA004057200","1916-01-25",-25.96,-40.00,0.00,0.00,
"CA004057200","1916-01-26",-18.94,-32.98,0.00,0.00,
"CA004057200","1916-01-27",-11.92,-18.94,28.00,28.00,
"CA004057200","1916-01-28",-5.98,-14.98,140.00,140.00,
"CA004057200","1916-01-29",-5.98,-14.08,165.00,165.00,
"CA004057200","1916-01-30",-2.92,-14.98,0.00,0.00,
"CA004057200","1916-01-31",-4.00,-16.06,0.00,0.00,
"CA004057200","1916-02-01",-2.02,-23.98,0.00,0.00,
"CA004057200","1916-02-02",1.04,-20.02,0.00,0.00,
"CA004057200","1916-02-03",3.92,-20.02,0.00,0.00,
"CA004057200","1916-02-04",-2.92,-20.02,0.00,0.00,
"CA004057200","1916-02-05",-11.02,-27.94,0.00,0.00,
"CA004057200","1916-02-06",-11.92,-20.02,0.00,0.00,
"CA004057200","1916-02-07",-14.08,-32.08,0.00,0.00,
"CA004057200","1916-02-08",-7.96,-25.06,0.00,0.00,
"CA004057200","1916-02-09",-11.92,-27.04,0.00,0.00,
"CA004057200","1916-02-10",-16.96,-34.96,0.00,0.00,
"CA004057200","1916-02-11",-14.98,-18.94,8.00,8.00,
"CA004057200","1916-02-12",-9.94,-18.94,3.00,3.00,
"CA004057200","1916-02-13",28.94,-14.08,0.00,0.00,
"CA004057200","1916-02-14",32.00,5.00,0.00,0.00,
"CA004057200","1916-02-15",39.02,28.94,0.00,0.00,
"CA004057200","1916-02-16",44.06,24.98,0.00,0.00,
"CA004057200","1916-02-17",39.02,19.04,0.00,0.00,
"CA004057200","1916-02-18",35.06,8.96,0.00,0.00,
"CA004057200","1916-02-19",39.92,10.04,0.00,0.00,
"CA004057200","1916-02-20",33.08,10.04,0.00,0.00,
"CA004057200","1916-02-21",30.92,21.02,0.00,0.00,
"CA004057200","1916-02-22",33.08,6.98,0.00,0.00,
"CA004057200","1916-02-23",30.02,15.08,0.00,0.00,
"CA004057200","1916-02-24",33.98,1.04,0.00,0.00,
"CA004057200","1916-02-25",32.00,10.04,0.00,0.00,
"CA004057200","1916-02-26",21.02,5.00,0.00,0.00,
"CA004057200","1916-02-27",15.98,-5.08,0.00,0.00,
"CA004057200","1916-02-28",-4.00,-18.94,0.00,0.00,
"CA004057200","1916-02-29",-11.92,-32.98,0.00,0.00,
"CA004057200","1916-03-01",1.94,-31.00,0.00,0.00,
"CA004057200","1916-03-02",-0.04,-25.96,0.00,0.00,
"CA004057200","1916-03-03",-2.02,-23.98,0.00,0.00,
"CA004057200","1916-03-04",-2.92,-27.94,15.00,15.00,
"CA004057200","1916-03-05",3.92,-22.00,0.00,0.00,
"CA004057200","1916-03-06",15.98,3.02,0.00,0.00,
"CA004057200","1916-03-07",17.06,-2.02,10.00,10.00,
"CA004057200","1916-03-08",39.02,15.08,0.00,0.00,
"CA004057200","1916-03-09",37.04,1.04,0.00,0.00,
"CA004057200","1916-03-10",35.06,-0.04,0.00,0.00,
"CA004057200","1916-03-11",41.00,17.96,0.00,0.00,
"CA004057200","1916-03-12",39.02,15.08,0.00,0.00,
"CA004057200","1916-03-13",19.04,-2.92,114.00,114.00,
"CA004057200","1916-03-14",15.98,-9.04,0.00,0.00,
"CA004057200","1916-03-15",3.02,-9.94,0.00,0.00,
"CA004057200","1916-03-16",10.04,1.04,46.00,46.00,
"CA004057200","1916-03-17",26.96,6.98,10.00,10.00,
"CA004057200","1916-03-18",28.94,5.00,0.00,0.00,
"CA004057200","1916-03-19",28.94,6.98,0.00,0.00,
"CA004057200","1916-03-20",30.92,6.08,0.00,0.00,
"CA004057200","1916-03-21",30.02,15.08,0.00,0.00,
"CA004057200","1916-03-22",19.94,8.96,30.00,30.00,
"CA004057200","1916-03-23",19.04,12.92,33.00,33.00,
"CA004057200","1916-03-24",17.96,3.92,0.00,0.00,
"CA004057200","1916-03-25",21.92,-9.04,0.00,0.00,
"CA004057200","1916-03-26",30.02,3.02,0.00,0.00,
"CA004057200","1916-03-27",39.02,23.00,0.00,0.00,
"CA004057200","1916-03-28",37.04,10.94,0.00,0.00,
"CA004057200","1916-03-29",32.00,12.02,0.00,0.00,
"CA004057200","1916-03-30",42.08,12.92,0.00,0.00,
"CA004057200","1916-03-31",37.04,24.98,0.00,0.00,
"CA004057200","1916-04-01",37.04,19.04,0.00,0.00,
"CA004057200","1916-04-02",37.04,26.96,0.00,0.00,
"CA004057200","1916-04-03",32.00,23.00,0.00,0.00,
"CA004057200","1916-04-04",28.04,12.92,0.00,0.00,
"CA004057200","1916-04-05",35.06,12.02,0.00,0.00,
"CA004057200","1916-04-06",33.98,26.96,13.00,0.00,
"CA004057200","1916-04-07",33.08,24.08,0.00,0.00,
"CA004057200","1916-04-08",48.92,24.08,0.00,0.00,
"CA004057200","1916-04-09",57.02,30.02,0.00,0.00,
"CA004057200","1916-04-10",53.06,33.98,0.00,0.00,
"CA004057200","1916-04-11",51.98,32.00,0.00,0.00,
"CA004057200","1916-04-12",39.92,33.08,79.00,0.00,
"CA004057200","1916-04-13",60.08,30.92,48.00,0.00,
"CA004057200","1916-04-14",69.08,33.98,0.00,0.00,
"CA004057200","1916-04-15",53.06,35.96,0.00,0.00,
"CA004057200","1916-04-16",53.96,28.94,0.00,0.00,
"CA004057200","1916-04-17",53.06,24.08,0.00,0.00,
"CA004057200","1916-04-18",46.04,33.98,0.00,0.00,
"CA004057200","1916-04-19",39.92,33.08,10.00,0.00,
"CA004057200","1916-04-20",51.98,28.04,0.00,0.00,
"CA004057200","1916-04-21",57.92,30.92,0.00,0.00,
"CA004057200","1916-04-22",51.08,35.06,10.00,0.00,
"CA004057200","1916-04-23",44.06,33.08,0.00,0.00,
"CA004057200","1916-04-24",41.00,30.02,13.00,0.00,
"CA004057200","1916-04-25",51.98,28.04,0.00,0.00,
"CA004057200","1916-04-26",66.02,28.94,0.00,0.00,
"CA004057200","1916-04-27",73.04,35.96,0.00,0.00,
"CA004057200","1916-04-28",64.94,30.02,5.00,0.00,
"CA004057200","1916-04-29",32.00,23.00,0.00,0.00,
"CA004057200","1916-04-30",42.98,15.98,0.00,0.00,
"CA004057200","1916-05-01",48.92,30.02,0.00,0.00,
"CA004057200","1916-05-02",53.96,17.96,0.00,0.00,
"CA004057200","1916-05-03",66.02,39.92,0.00,0.00,
"CA004057200","1916-05-04",69.08,39.02,15.00,0.00,
"CA004057200","1916-05-05",64.94,39.92,0.00,0.00,
"CA004057200","1916-05-06",71.06,42.98,0.00,0.00,
"CA004057200","1916-05-07",64.94,39.92,28.00,0.00,
"CA004057200","1916-05-08",62.96,30.02,0.00,0.00,
"CA004057200","1916-05-09",55.04,37.94,0.00,0.00,
"CA004057200","1916-05-10",48.92,30.02,0.00,0.00,
"CA004057200","1916-05-11",51.08,28.94,0.00,0.00,
"CA004057200","1916-05-12",51.08,28.94,5.00,0.00,
"CA004057200","1916-05-13",57.92,26.96,10.00,0.00,
"CA004057200","1916-05-14",60.08,35.96,0.00,0.00,
"CA004057200","1916-05-15",60.98,28.04,0.00,0.00,
"CA004057200","1916-05-16",59.00,28.04,3.00,0.00,
"CA004057200","1916-05-17",66.92,32.00,0.00,0.00,
"CA004057200","1916-05-18",69.98,33.98,0.00,0.00,
"CA004057200","1916-05-19",75.02,33.08,0.00,0.00,
"CA004057200","1916-05-20",71.96,42.08,0.00,0.00,
"CA004057200","1916-05-21",66.92,51.98,3.00,0.00,
"CA004057200","1916-05-22",53.96,41.00,3.00,0.00,
"CA004057200","1916-05-23",44.96,37.04,79.00,0.00,
"CA004057200","1916-05-24",48.92,37.94,46.00,0.00,
"CA004057200","1916-05-25",46.04,37.04,155.00,0.00,
"CA004057200","1916-05-26",44.96,35.06,163.00,0.00,
"CA004057200","1916-05-27",51.98,35.96,30.00,0.00,
"CA004057200","1916-05-28",55.94,33.08,13.00,0.00,
"CA004057200","1916-05-29",53.06,33.08,0.00,0.00,
"CA004057200","1916-05-30",48.92,44.96,0.00,0.00,
"CA004057200","1916-05-31",48.02,37.04,180.00,0.00,
"CA004057200","1916-06-01",55.04,30.92,46.00,0.00,
"CA004057200","1916-06-02",64.04,35.06,0.00,0.00,
"CA004057200","1916-06-03",66.02,42.98,0.00,0.00,
"CA004057200","1916-06-04",64.94,44.06,0.00,0.00,
"CA004057200","1916-06-05",53.96,42.98,3.00,0.00,
"CA004057200","1916-06-06",60.08,44.96,15.00,0.00,
"CA004057200","1916-06-07",68.00,35.06,0.00,0.00,
"CA004057200","1916-06-08",75.92,39.92,13.00,0.00,
"CA004057200","1916-06-09",77.00,42.98,3.00,0.00,
"CA004057200","1916-06-10",60.08,50.00,86.00,0.00,
"CA004057200","1916-06-11",55.04,42.08,23.00,0.00,
"CA004057200","1916-06-12",59.00,44.96,76.00,0.00,
"CA004057200","1916-06-13",62.06,41.00,13.00,0.00,
"CA004057200","1916-06-14",66.02,46.04,23.00,0.00,
"CA004057200","1916-06-15",73.94,44.06,0.00,0.00,
"CA004057200","1916-06-16",78.08,53.06,25.00,0.00,
"CA004057200","1916-06-17",75.02,46.94,0.00,0.00,
"CA004057200","1916-06-18",73.04,44.96,0.00,0.00,
"CA004057200","1916-06-19",69.08,48.92,0.00,0.00,
"CA004057200","1916-06-20",66.92,42.98,0.00,0.00,
"CA004057200","1916-06-21",69.08,39.92,0.00,0.00,
"CA004057200","1916-06-22",55.94,48.92,3.00,0.00,
"CA004057200","1916-06-23",68.00,48.92,8.00,0.00,
"CA004057200","1916-06-24",73.94,48.02,0.00,0.00,
"CA004057200","1916-06-25",73.04,46.04,28.00,0.00,
"CA004057200","1916-06-26",60.98,50.00,0.00,0.00,
"CA004057200","1916-06-27",60.98,39.02,8.00,0.00,
"CA004057200","1916-06-28",73.04,39.02,71.00,0.00,
"CA004057200","1916-06-29",77.00,60.08,10.00,0.00,
"CA004057200","1916-06-30",68.00,57.02,38.00,0.00,
"CA004057200","1916-07-01",80.06,53.96,41.00,0.00,
"CA004057200","1916-07-02",82.94,55.04,0.00,0.00,
"CA004057200","1916-07-03",73.94,60.98,284.00,0.00,
"CA004057200","1916-07-04",66.92,53.06,15.00,0.00,
"CA004057200","1916-07-05",75.92,50.00,3.00,0.00,
"CA004057200","1916-07-06",73.94,53.96,64.00,0.00,
"CA004057200","1916-07-07",71.96,57.02,69.00,0.00,
"CA004057200","1916-07-08",73.94,60.98,8.00,0.00,
"CA004057200","1916-07-09",80.06,62.96,81.00,0.00,
"CA004057200","1916-07-10",80.96,64.94,0.00,0.00,
"CA004057200","1916-07-11",86.00,53.06,0.00,0.00,
"CA004057200","1916-07-12",82.04,55.94,25.00,0.00,
"CA004057200","1916-07-13",84.02,62.06,0.00,0.00,
"CA004057200","1916-07-14",80.96,48.02,0.00,0.00,
"CA004057200","1916-07-15",78.98,46.94,0.00,0.00,
"CA004057200","1916-07-16",87.98,53.96,0.00,0.00,
"CA004057200","1916-07-17",89.06,59.00,0.00,0.00,
"CA004057200","1916-07-18",77.00,55.94,25.00,0.00,
"CA004057200","1916-07-19",73.04,53.96,168.00,0.00,
"CA004057200","1916-07-20",80.96,48.02,0.00,0.00,
"CA004057200","1916-07-21",68.00,53.96,0.00,0.00,
"CA004057200","1916-07-22",71.96,51.08,33.00,0.00,
"CA004057200","1916-07-23",62.96,50.00,114.00,0.00,
"CA004057200","1916-07-24",69.08,46.94,0.00,0.00,
"CA004057200","1916-07-25",71.96,46.04,91.00,0.00,
"CA004057200","1916-07-26",71.06,57.92,188.00,0.00,
"CA004057200","1916-07-27",75.02,60.98,0.00,0.00,
"CA004057200","1916-07-28",75.92,62.06,79.00,0.00,
"CA004057200","1916-07-29",75.02,51.98,0.00,0.00,
"CA004057200","1916-07-30",78.98,51.98,0.00,0.00,
"CA004057200","1916-07-31",84.02,53.06,0.00,0.00,
"CA004057200","1916-08-01",82.04,62.06,0.00,0.00,
"CA004057200","1916-08-02",77.00,51.98,0.00,0.00,
"CA004057200","1916-08-03",75.92,50.00,76.00,0.00,
"CA004057200","1916-08-04",69.08,48.92,112.00,0.00,
"CA004057200","1916-08-05",66.92,46.94,0.00,0.00,
"CA004057200","1916-08-06",75.92,50.00,56.00,0.00,
"CA004057200","1916-08-07",82.94,51.08,0.00,0.00,
"CA004057200","1916-08-08",84.92,53.06,0.00,0.00,
"CA004057200","1916-08-09",68.00,53.06,89.00,0.00,
"CA004057200","1916-08-10",51.98,39.02,5.00,0.00,
"CA004057200","1916-08-11",60.08,37.94,8.00,0.00,
"CA004057200","1916-08-12",69.08,39.92,0.00,0.00,
"CA004057200","1916-08-13",71.96,42.98,0.00,0.00,
"CA004057200","1916-08-14",84.92,46.04,0.00,0.00,
"CA004057200","1916-08-15",82.94,50.00,0.00,0.00,
"CA004057200","1916-08-16",73.94,53.96,0.00,0.00,
"CA004057200","1916-08-17",77.00,51.08,64.00,0.00,
"CA004057200","1916-08-18",71.96,55.94,8.00,0.00,
"CA004057200","1916-08-19",60.98,46.04,3.00,0.00,
"CA004057200","1916-08-20",71.96,44.06,3.00,0.00,
"CA004057200","1916-08-21",73.04,44.96,0.00,0.00,
"CA004057200","1916-08-22",82.04,44.96,0.00,0.00,
"CA004057200","1916-08-23",73.04,51.08,0.00,0.00,
"CA004057200","1916-08-24",57.92,46.94,5.00,0.00,
"CA004057200","1916-08-25",64.94,44.96,25.00,0.00,
"CA004057200","1916-08-26",69.08,35.96,0.00,0.00,
"CA004057200","1916-08-27",73.94,39.02,0.00,0.00,
"CA004057200","1916-08-28",69.08,48.02,0.00,0.00,
"CA004057200","1916-08-29",66.92,32.00,0.00,0.00,
"CA004057200","1916-08-30",73.04,39.92,0.00,0.00,
"CA004057200","1916-08-31",57.02,39.92,5.00,0.00,
"CA004057200","1916-09-01",62.96,28.94,0.00,0.00,
"CA004057200","1916-09-02",75.92,44.06,0.00,0.00,
"CA004057200","1916-09-03",66.02,51.08,0.00,0.00,
"CA004057200","1916-09-04",60.98,48.02,28.00,0.00,
"CA004057200","1916-09-05",59.00,50.00,43.00,0.00,
"CA004057200","1916-09-06",71.06,37.94,0.00,0.00,
"CA004057200","1916-09-07",71.06,42.08,15.00,0.00,
"CA004057200","1916-09-08",73.94,48.92,0.00,0.00,